Roseburg, OR

9:25 AM PDT on April 23, 2018 (GMT -0700)
Roseburg Regional

Weather History for KRBG - July, 2013

Change the Weather History Date:

Wednesday, July 24, 2013

  Actual Average Record
Temperature  
Mean Temperature 82 °F 72 °F  
Max Temperature 98 °F 86 °F 101 °F (2006)
Min Temperature 65 °F 57 °F 48 °F (1957)
Degree Days  
Heating Degree Days 0 0  
Month to date heating degree days 0 8  
Since 1 June heating degree days 35 91  
Since 1 July heating degree days 0 8  
Cooling Degree Days 17 7  
Month to date cooling degree days 241 127  
Year to date cooling degree days 386 197  
Since 1 June cooling degree days 352 177  
Growing Degree Days 31 (Base 50)    
Moisture  
Dew Point 53 °F    
Average Humidity 43    
Maximum Humidity 73    
Minimum Humidity 13    
Precipitation  
Precipitation 0.00 in 0.01 in 0.02 in (1947)
Month to date precipitation T 0.35  
Year to date precipitation 7.88 19.11  
Sea Level Pressure  
Sea Level Pressure 29.96 in    
Wind  
Wind Speed 3 mph (North)    
Max Wind Speed 14 mph    
Max Gust Speed 17 mph    
Visibility 10 miles    
Events      
T = Trace of Precipitation, MM = Missing Value Source: NWS Daily Summary

Daily Weather History Graph

Daily Weather History Graph

Search for Another Location

Airport or City:

Astronomy

Jul. 24, 2013 Rise Set
Actual Time 5:55 AM PDT 8:43 PM PDT
Civil Twilight 5:22 AM PDT 9:16 PM PDT
Nautical Twilight 4:40 AM PDT 9:58 PM PDT
Astronomical Twilight 3:51 AM PDT 10:46 PM PDT
Moon 9:45 PM PDT (7/24) 8:28 AM PDT (7/24)
Length of Visible Light 15h 54m
Length of Day
14h 47m
Waning Gibbous, 94% of the Moon is Illuminated
Jul 24
Waning Gibbous
Jul 29
Last Quarter
Aug 6
New
Aug 14
First Quarter
Aug 20
Full

Hourly Weather History & Observations

Time (PDT) Temp. Heat Index Dew Point Humidity Pressure Visibility Wind Dir Wind Speed Gust Speed Precip Events Conditions
12:53 AM 75.9 °F - 55.9 °F 50% 29.98 in 10.0 mi NNE 4.6 mph - N/A   Clear
1:53 AM 72.0 °F - 57.0 °F 59% 29.97 in 10.0 mi Calm Calm - N/A   Clear
2:53 AM 72.0 °F - 55.0 °F 55% 29.98 in 10.0 mi North 3.5 mph - N/A   Clear
3:53 AM 69.1 °F - 54.0 °F 58% 29.98 in 10.0 mi Calm Calm - N/A   Clear
4:53 AM 66.9 °F - 54.0 °F 63% 29.98 in 10.0 mi Calm Calm - N/A   Clear
5:53 AM 66.0 °F - 54.0 °F 65% 29.98 in 10.0 mi Calm Calm - N/A   Clear
6:53 AM 64.9 °F - 55.9 °F 73% 29.99 in 10.0 mi Calm Calm - N/A   Clear
7:53 AM 66.0 °F - 55.0 °F 68% 30.00 in 10.0 mi Calm Calm - N/A   Clear
8:53 AM 70.0 °F - 54.0 °F 57% 30.01 in 10.0 mi Calm Calm - N/A   Clear
9:53 AM 73.9 °F - 55.9 °F 53% 30.00 in 10.0 mi NNE 4.6 mph - N/A   Clear
10:53 AM 75.0 °F - 55.9 °F 51% 30.00 in 10.0 mi Variable 3.5 mph - N/A   Clear
11:53 AM 81.0 °F 80.8 °F 55.9 °F 42% 29.99 in 10.0 mi Variable 5.8 mph - N/A   Clear
12:53 PM 84.9 °F 83.7 °F 55.9 °F 37% 29.97 in 10.0 mi Variable 3.5 mph - N/A   Clear
1:53 PM 89.1 °F 87.3 °F 55.9 °F 32% 29.96 in 10.0 mi SE 6.9 mph - N/A   Clear
2:53 PM 91.9 °F 90.0 °F 55.0 °F 29% 29.94 in 10.0 mi Variable 3.5 mph - N/A   Clear
3:53 PM 95.0 °F - 52.0 °F 23% 29.92 in 10.0 mi Variable 3.5 mph - N/A   Clear
4:53 PM 97.0 °F - 45.0 °F 17% 29.91 in 10.0 mi NW 5.8 mph - N/A   Clear
5:53 PM 98.1 °F - 43.0 °F 15% 29.89 in 10.0 mi North 10.4 mph 16.1 mph N/A   Clear
6:53 PM 97.0 °F - 37.9 °F 13% 29.90 in 10.0 mi North 10.4 mph - N/A   Clear
7:53 PM 93.9 °F - 37.9 °F 14% 29.91 in 10.0 mi North 8.1 mph - N/A   Clear
8:53 PM 89.1 °F 86.7 °F 53.1 °F 29% 29.92 in 10.0 mi NNW 4.6 mph - N/A   Clear
9:53 PM 84.0 °F 82.6 °F 54.0 °F 35% 29.94 in 10.0 mi Calm Calm - N/A   Clear
10:53 PM 80.1 °F 80.0 °F 54.0 °F 40% 29.95 in 10.0 mi Calm Calm - N/A   Clear
11:53 PM 75.0 °F - 55.0 °F 50% 29.96 in 10.0 mi Calm Calm - N/A   Clear